Weather History for Greenville, MS

Change the Weather History Date:

Wednesday, May 15, 2013

  Actual Average Record
Temperature  
Mean Temperature 71 °F 72 °F  
Max Temperature 82 °F 82 °F 92 °F (1925)
Min Temperature 60 °F 62 °F 48 °F (1926)
Degree Days  
Heating Degree Days 0 0  
Month to date heating degree days 52 10  
Since 1 July heating degree days 2695 2771  
Cooling Degree Days 6 7  
Month to date cooling degree days 26 89  
Year to date cooling degree days 105 175  
Growing Degree Days 20 (Base 50)    
Moisture  
Dew Point 58 °F    
Average Humidity 63    
Maximum Humidity 78    
Minimum Humidity 48    
Precipitation  
Precipitation T in 0.18 in 3.03 in (1923)
Month to date precipitation 1.22 2.66  
Year to date precipitation 21.88 22.01  
Sea Level Pressure  
Sea Level Pressure 30.09 in    
Wind  
Wind Speed 10 mph (SSW)    
Max Wind Speed 20 mph    
Max Gust Speed 24 mph    
Visibility 10 miles    
Events Rain    
T = Trace of Precipitation, MM = Missing Value Source: NWS Daily Summary

Daily Weather History Graph

Daily Weather History Graph

Search for Another Location

Airport:

Trip Planner

Search our weather history database for the weather conditions in past years. The results will help you decide how hot, cold, wet, or windy it might be!

Date:

Astronomy

May. 15, 2013 Rise Set
Actual Time 6:03 AM CDT 7:57 PM CDT
Civil Twilight 5:35 AM CDT 8:25 PM CDT
Nautical Twilight 5:02 AM CDT 8:58 PM CDT
Astronomical Twilight 4:27 AM CDT 9:33 PM CDT
Moon 10:36 AM CDT (5/15) No Moon Set
Length of Visible Light 14h 49m
Length of Day
13h 54m
Waxing Crescent, 27% of the Moon is Illuminated
May 15
Waxing Crescent
May 17
First Quarter
May 24
Full
May 31
Last Quarter
Jun 8
New

Hourly Weather History & Observations

Time (CDT) Temp. Heat Index Dew Point Humidity Pressure Visibility Wind Dir Wind Speed Gust Speed Precip Events Conditions
12:53 AM 66.9 °F - 55.0 °F 66% 30.12 in 10.0 mi SSW 9.2 mph - N/A   Clear
1:53 AM 68.0 °F - 54.0 °F 61% 30.13 in 10.0 mi SW 10.4 mph - N/A   Clear
2:53 AM 66.9 °F - 54.0 °F 63% 30.13 in 10.0 mi SW 10.4 mph - N/A   Clear
3:53 AM 64.0 °F - 54.0 °F 70% 30.13 in 10.0 mi SW 8.1 mph - N/A   Clear
4:53 AM 61.0 °F - 53.1 °F 75% 30.14 in 10.0 mi SW 6.9 mph - N/A   Clear
5:53 AM 61.0 °F - 54.0 °F 78% 30.15 in 10.0 mi SSW 6.9 mph - N/A   Clear
6:53 AM 63.0 °F - 55.9 °F 78% 30.17 in 10.0 mi SSW 8.1 mph - N/A   Clear
7:53 AM 66.9 °F - 59.0 °F 76% 30.17 in 10.0 mi SW 9.2 mph - N/A   Clear
8:53 AM 70.0 °F - 62.1 °F 76% 30.17 in 10.0 mi SW 9.2 mph - N/A   Clear
9:53 AM 73.0 °F - 63.0 °F 71% 30.16 in 10.0 mi SW 6.9 mph - N/A   Clear
10:53 AM 75.9 °F - 60.1 °F 58% 30.16 in 10.0 mi SW 9.2 mph - N/A   Clear
11:53 AM 79.0 °F - 62.1 °F 56% 30.14 in 10.0 mi South 10.4 mph - N/A   Clear
12:53 PM 80.1 °F 80.9 °F 60.1 °F 50% 30.11 in 10.0 mi SSW 15.0 mph - N/A   Clear
1:53 PM 79.0 °F - 60.1 °F 52% 30.09 in 10.0 mi South 15.0 mph 21.9 mph N/A   Clear
2:53 PM 79.0 °F - 57.0 °F 47% 30.06 in 10.0 mi South 17.3 mph 24.2 mph N/A   Clear
3:53 PM 79.0 °F - 57.9 °F 48% 30.04 in 10.0 mi South 16.1 mph 23.0 mph N/A   Clear
4:53 PM 78.1 °F - 57.9 °F 50% 30.03 in 10.0 mi South 16.1 mph 21.9 mph N/A   Clear
5:53 PM 77.0 °F - 57.9 °F 52% 30.01 in 10.0 mi South 13.8 mph - N/A   Clear
6:53 PM 75.0 °F - 57.9 °F 55% 30.00 in 10.0 mi South 9.2 mph - N/A   Clear
7:53 PM 72.0 °F - 59.0 °F 64% 30.01 in 10.0 mi South 8.1 mph - N/A   Clear
8:53 PM 71.1 °F - 60.1 °F 68% 30.01 in 10.0 mi South 4.6 mph - N/A   Clear
9:53 PM 71.1 °F - 61.0 °F 70% 30.02 in 10.0 mi South 6.9 mph - N/A   Scattered Clouds
10:53 PM 70.0 °F - 62.1 °F 76% 30.02 in 10.0 mi SW 6.9 mph - 0.00 in Rain Light Rain
11:53 PM 69.1 °F - 61.0 °F 75% 30.02 in 10.0 mi WSW 5.8 mph - 0.00 in   Clear